星链-3363 (STARLINK-3363 )

导读

STARLINK-3363是美国太空探索技术公司Starlink星链卫星互联网项目的卫星,于2022年1月19日发射升空,隶属于星链低轨星座组网卫星,主要用于为全球提供高速卫星互联网接入服务,运行在近地轨道,星链系统凭借海量卫星部署,逐步推进全球覆盖的太空互联网建设,该卫星是星链星座扩容过程中的一员。

Basic Information
目录编号:
51135
目录名称:
STARLINK-3363
国际标识:
2022-005AH
轨道中心:
EARTH
卫星名称:
星链-3363
卫星全名:
星链-3363 (STARLINK-3363 )
卫星状态:
在轨 (已飞行1689 天)
发射日期:
2022-01-19 UTC
国别 :
美国 (US)
星等 :
--
Orbit Information
数据来源 国际轨道数据
星历时间: 2026-09-04T06:08:35+0800
8小时前
查看轨道信息
半长轴: 6837.859km
偏心率: 0.0001168
轨道倾角: 53.160°
近地点辐角 94.028°
升交点赤经 207.319°
平近点角 266.086°
近地点: 458.923km
远地点: 460.521km
周期: 93.786分钟
每日圈数: 15.354037
Detailed Information
固有亮度:
5
最大亮度:
2.5
卫星平台:
Starlink v1.5
覆盖范围:
全球
运营商:
太空探索技术公司
运营商所在国:
美国
制造商(研发单位):
太空探索技术公司
制造商所在国:
美国
使用方式:
暂无
Satellite Introduction
星链(Starlink)计划是由太空探索技术公司(SpaceX)提出的一个巨型低轨卫星互联网星座项目,计划在2019年至2024年间在太空搭建由约1.2万颗卫星组成的“星链”网络,其中1584颗将部署在地球上空550千米处的近地轨道,并从2020年开始工作。该卫星仍在工作。
2D Orbit Map
3D Orbit Map
Orbit Altitude Analysis Chart
Orbit Inclination Analysis Chart
Orbit Comprehensive Analysis Chart
View Comprehensive Chart
Conjunction Data List
Event ID Objects TCA Miss Dist (km) Collision Risk Probability Collision Risk Index (CRI) Action
CDM_260904-233305-113506-178122
2026-09-04T
23:33:48+0000
0.942 km
远距离
2.691763E-5 中风险 0.64
CDM_260903-175605-113506-436121
2026-09-03T
17:56:01+0000
2.064 km
极远距离
2.091918E-6 低风险 0.41
CDM_260904-134905-113505-693423
2026-09-04T
13:49:34+0000
2.654 km
极远距离
1.584477E-6 低风险 0.39
CDM_260903-053805-113505-299822
2026-09-03T
05:38:45+0000
2.810 km
极远距离
1.285289E-6 低风险 0.37
CDM_260904-064005-113505-343921
2026-09-04T
06:40:33+0000
2.962 km
极远距离
1.212724E-6 低风险 0.37
CDM_260903-102005-113506-427921
2026-09-03T
10:20:28+0000
2.982 km
极远距离
1.195146E-6 低风险 0.37